Macomb, IL

12:28 AM CDT on October 21, 2017 (GMT -0500)
Macomb Municipal

Weather History for KMQB - November, 2013

Change the Weather History Date:

Saturday, November 9, 2013

  Actual Average (KBRL) Record (KBRL)
Temperature  
Mean Temperature 52 °F -  
Max Temperature 63 °F 47 °F 76 °F (1984)
Min Temperature 40 °F 31 °F 11 °F (1991)
Degree Days  
Heating Degree Days 12    
Growing Degree Days 2 (Base 50)    
Moisture  
Dew Point 37 °F    
Average Humidity 56    
Maximum Humidity 79    
Minimum Humidity 36    
Precipitation  
Precipitation 0.00 in - - ()
Sea Level Pressure  
Sea Level Pressure 30.06 in    
Wind  
Wind Speed 16 mph (West)    
Max Wind Speed 25 mph    
Max Gust Speed 32 mph    
Visibility 10 miles    
Events      
Averages and records for this station are not official NWS values.
T = Trace of Precipitation, MM = Missing Value Source: NWS Daily Summary

Daily Weather History Graph

Daily Weather History Graph

Search for Another Location

Airport or City:

Trip Planner

Search our weather history database for the weather conditions in past years. The results will help you decide how hot, cold, wet, or windy it might be!

Date:

Astronomy

Nov. 09, 2013 Rise Set
Actual Time 6:42 AM CST 4:50 PM CST
Civil Twilight 6:13 AM CST 5:19 PM CST
Nautical Twilight 5:40 AM CST 5:51 PM CST
Astronomical Twilight 5:08 AM CST 6:23 PM CST
Moon 12:18 PM CST (11/9) 11:20 PM CST (11/9)
Length of Visible Light 11h 05m
Length of Day
10h 07m
Waxing Crescent, 44% of the Moon is Illuminated
Nov 9
Waxing Crescent
Nov 9
First Quarter
Nov 17
Full
Nov 25
Last Quarter
Dec 2
New

Hourly Weather History & Observations

Time (CST) Temp. Windchill Dew Point Humidity Pressure Visibility Wind Dir Wind Speed Gust Speed Precip Events Conditions
12:15 AM 52.0 °F - 35.1 °F 53% 29.97 in 10.0 mi SSW 15.0 mph 26.5 mph N/A   Clear
12:35 AM 51.4 °F - 35.6 °F 55% 29.97 in 10.0 mi SSW 16.1 mph 21.9 mph N/A   Clear
12:55 AM 52.0 °F - 36.1 °F 55% 29.96 in 10.0 mi SSW 17.3 mph 26.5 mph N/A   Clear
1:15 AM 52.9 °F - 36.7 °F 54% 29.95 in 10.0 mi SSW 19.6 mph 26.5 mph N/A   Clear
1:35 AM 53.6 °F - 37.2 °F 54% 29.95 in 10.0 mi SSW 19.6 mph 28.8 mph N/A   Clear
1:55 AM 53.8 °F - 37.4 °F 54% 29.96 in 10.0 mi SW 21.9 mph 32.2 mph N/A   Clear
2:15 AM 53.6 °F - 37.6 °F 55% 29.95 in 10.0 mi SW 19.6 mph 26.5 mph N/A   Clear
2:35 AM 52.9 °F - 38.3 °F 58% 29.95 in 10.0 mi SW 18.4 mph 26.5 mph N/A   Clear
2:55 AM 52.3 °F - 38.3 °F 59% 29.95 in 10.0 mi SW 20.7 mph 25.3 mph N/A   Clear
3:15 AM 52.2 °F - 38.5 °F 60% 29.95 in 10.0 mi SW 20.7 mph 26.5 mph N/A   Clear
3:35 AM 52.2 °F - 38.8 °F 60% 29.95 in 10.0 mi SW 16.1 mph 24.2 mph N/A   Clear
3:55 AM 52.2 °F - 39.0 °F 61% 29.95 in 10.0 mi WSW 19.6 mph 26.5 mph N/A   Clear
4:15 AM 51.8 °F - 39.2 °F 62% 29.96 in 10.0 mi WSW 17.3 mph 24.2 mph N/A   Clear
4:35 AM 51.8 °F - 39.2 °F 62% 29.96 in 10.0 mi SW 15.0 mph - N/A   Clear
4:55 AM 50.9 °F - 39.2 °F 64% 29.97 in 10.0 mi WSW 12.7 mph 19.6 mph N/A   Clear
5:15 AM 50.2 °F - 39.2 °F 66% 29.97 in 10.0 mi SW 13.8 mph 19.6 mph N/A   Clear
5:35 AM 50.0 °F - 39.2 °F 66% 29.98 in 10.0 mi WSW 13.8 mph - N/A   Clear
5:55 AM 49.5 °F - 39.2 °F 68% 29.99 in 10.0 mi SW 12.7 mph - N/A   Clear
6:15 AM 48.9 °F - 39.2 °F 69% 30.00 in 10.0 mi SW 11.5 mph - N/A   Clear
6:35 AM 48.4 °F - 39.0 °F 70% 30.00 in 10.0 mi SW 10.4 mph - N/A   Clear
6:55 AM 47.7 °F - 39.2 °F 72% 30.00 in 10.0 mi SW 10.4 mph - N/A   Clear
7:15 AM 48.2 °F - 39.2 °F 71% 30.00 in 10.0 mi SW 10.4 mph - N/A   Clear
7:35 AM 49.1 °F - 39.7 °F 70% 30.01 in 10.0 mi SW 11.5 mph 18.4 mph N/A   Clear
7:55 AM 50.7 °F - 39.9 °F 67% 30.02 in 10.0 mi SW 13.8 mph 20.7 mph N/A   Clear
8:15 AM 52.0 °F - 39.9 °F 63% 30.03 in 10.0 mi WSW 15.0 mph 21.9 mph N/A   Clear
8:35 AM 53.4 °F - 40.1 °F 61% 30.03 in 10.0 mi WSW 18.4 mph 23.0 mph N/A   Clear
8:55 AM 54.7 °F - 39.9 °F 58% 30.03 in 10.0 mi WSW 16.1 mph 21.9 mph N/A   Clear
9:15 AM 55.9 °F - 39.4 °F 54% 30.03 in 10.0 mi West 18.4 mph 26.5 mph N/A   Clear
9:35 AM 57.2 °F - 39.0 °F 51% 30.03 in 10.0 mi West 23.0 mph 27.6 mph N/A   Clear
9:55 AM 58.3 °F - 38.8 °F 48% 30.03 in 10.0 mi West 20.7 mph 25.3 mph N/A   Clear
10:15 AM 59.7 °F - 38.7 °F 46% 30.04 in 10.0 mi WSW 19.6 mph 25.3 mph N/A   Clear
10:35 AM 60.3 °F - 37.2 °F 42% 30.04 in 10.0 mi West 19.6 mph 25.3 mph N/A   Clear
10:55 AM 61.3 °F - 37.0 °F 40% 30.04 in 10.0 mi West 21.9 mph 26.5 mph N/A   Clear
11:15 AM 61.9 °F - 37.0 °F 40% 30.05 in 10.0 mi West 25.3 mph 29.9 mph N/A   Clear
11:35 AM 61.2 °F - 38.8 °F 44% 30.04 in 10.0 mi West 24.2 mph 31.1 mph N/A   Clear
11:55 AM 61.2 °F - 38.8 °F 44% 30.04 in 10.0 mi West 19.6 mph 31.1 mph N/A   Clear
12:15 PM 62.4 °F - 37.9 °F 40% 30.03 in 10.0 mi West 23.0 mph 27.6 mph N/A   Clear
12:35 PM 62.6 °F - 37.6 °F 40% 30.03 in 10.0 mi West 25.3 mph - N/A   Clear
12:55 PM 62.8 °F - 37.4 °F 39% 30.04 in 10.0 mi West 23.0 mph 31.1 mph N/A   Clear
1:15 PM 63.3 °F - 37.2 °F 38% 30.04 in 10.0 mi West 20.7 mph - N/A   Clear
1:35 PM 63.3 °F - 36.5 °F 37% 30.05 in 10.0 mi West 25.3 mph 32.2 mph N/A   Clear
1:55 PM 63.5 °F - 37.2 °F 38% 30.05 in 10.0 mi West 20.7 mph 29.9 mph N/A   Clear
2:15 PM 63.7 °F - 37.2 °F 38% 30.06 in 10.0 mi West 23.0 mph 28.8 mph N/A   Clear
2:35 PM 63.5 °F - 36.3 °F 36% 30.06 in 10.0 mi WNW 20.7 mph 31.1 mph N/A   Clear
2:55 PM 63.5 °F - 36.1 °F 36% 30.07 in 10.0 mi West 21.9 mph 31.1 mph N/A   Clear
3:15 PM 63.1 °F - 36.0 °F 36% 30.08 in 10.0 mi West 23.0 mph 28.8 mph N/A   Clear
3:35 PM 62.6 °F - 36.7 °F 38% 30.09 in 10.0 mi WNW 18.4 mph 23.0 mph N/A   Clear
3:55 PM 61.7 °F - 35.2 °F 37% 30.09 in 10.0 mi WNW 17.3 mph 24.2 mph N/A   Clear
4:15 PM 60.6 °F - 34.9 °F 38% 30.10 in 10.0 mi WNW 18.4 mph 23.0 mph N/A   Clear
4:35 PM 58.8 °F - 35.4 °F 42% 30.10 in 10.0 mi WNW 12.7 mph - N/A   Clear
4:55 PM 56.3 °F - 36.3 °F 47% 30.11 in 10.0 mi WNW 10.4 mph - N/A   Clear
5:15 PM 53.2 °F - 36.7 °F 53% 30.12 in 10.0 mi WNW 9.2 mph - N/A   Clear
5:35 PM 52.0 °F - 36.7 °F 56% 30.13 in 10.0 mi WNW 9.2 mph - N/A   Clear
5:55 PM 50.7 °F - 36.1 °F 57% 30.13 in 10.0 mi WNW 8.1 mph - N/A   Clear
6:15 PM 49.1 °F - 35.6 °F 60% 30.14 in 10.0 mi WNW 8.1 mph - N/A   Clear
6:35 PM 47.7 °F - 35.2 °F 62% 30.15 in 10.0 mi WNW 6.9 mph - N/A   Clear
6:55 PM 46.2 °F 42.7 °F 35.1 °F 65% 30.15 in 10.0 mi WNW 6.9 mph - N/A   Clear
7:15 PM 44.1 °F 40.1 °F 34.2 °F 68% 30.16 in 10.0 mi West 6.9 mph - N/A   Clear
7:35 PM 42.8 °F 38.0 °F 34.7 °F 73% 30.17 in 10.0 mi WSW 8.1 mph - N/A   Clear
7:55 PM 44.6 °F 40.2 °F 35.2 °F 70% 30.17 in 10.0 mi West 8.1 mph - N/A   Clear
8:35 PM 44.8 °F 39.4 °F 35.6 °F 70% 30.18 in 10.0 mi West 10.4 mph - N/A   Clear
8:55 PM 46.4 °F 41.9 °F 36.1 °F 67% 30.19 in 10.0 mi West 9.2 mph - N/A   Clear
9:15 PM 48.2 °F - 36.5 °F 64% 30.20 in 10.0 mi West 10.4 mph - N/A   Clear
9:35 PM 46.6 °F - 36.3 °F 67% 30.21 in 10.0 mi West 8.1 mph - N/A   Clear
9:55 PM 43.7 °F 39.7 °F 35.4 °F 73% 30.22 in 10.0 mi WNW 6.9 mph - N/A   Clear
10:15 PM 47.7 °F - 36.9 °F 66% 30.23 in 10.0 mi NW 12.7 mph 17.3 mph N/A   Clear
10:35 PM 47.8 °F - 37.2 °F 67% 30.24 in 10.0 mi NW 11.5 mph - N/A   Clear
10:55 PM 47.5 °F - 36.1 °F 65% 30.25 in 10.0 mi NW 12.7 mph - N/A   Clear
11:15 PM 46.4 °F 41.9 °F 35.6 °F 66% 30.25 in 10.0 mi NW 9.2 mph - N/A   Clear
11:35 PM 43.3 °F 39.2 °F 35.2 °F 73% 30.25 in 10.0 mi WNW 6.9 mph - N/A   Clear
11:55 PM 40.3 °F 35.5 °F 34.3 °F 79% 30.26 in 10.0 mi West 6.9 mph - N/A   Clear